Location: Home
(42.5358°N, 72.7383°W)
Time: 13:23:24
(UTC-05:00)

Vanguard 2 Rocket - All Passes

Search period start: 30 November 2021 00:00
Search period end: 10 December 2021 00:00
Orbit: 555 x 3324 km, 32.9° (Epoch: 30 November)

Date Brightness Start Highest point End Pass type
(mag) Time Alt. Az. Time Alt. Az. Time Alt. Az.
30 Nov - 02:17:52 10° WSW 02:28:33 19° SW 02:40:18 10° S visible
30 Nov - 16:29:33 10° SE 16:30:33 10° SE 16:31:36 10° SE daylight
30 Nov - 18:35:35 10° SW 18:42:07 38° SSE 18:52:59 10° E visible
30 Nov - 20:46:49 10° WSW 20:55:55 54° S 21:11:31 10° ESE visible
30 Nov - 22:59:42 10° W 23:11:24 45° SSW 23:28:49 10° SE night (unlit)
01 Dec - 01:15:24 10° W 01:27:19 25° SW 01:41:38 10° S visible
01 Dec - 17:37:23 10° SSW 17:42:37 27° SSE 17:50:33 10° E visible
01 Dec - 19:47:45 10° WSW 19:55:29 50° S 20:08:58 10° ESE visible
01 Dec - 21:59:58 10° W 22:10:17 49° S 22:26:52 10° SE visible
02 Dec - 00:14:13 10° W 00:26:02 31° SSW 00:41:40 10° SSE visible
02 Dec - 02:37:27 10° WSW 02:41:31 11° SW 02:45:46 10° SSW visible
02 Dec - 16:39:55 10° S 16:43:26 16° SE 16:47:58 10° ESE visible
02 Dec - 18:48:57 10° SW 18:55:28 43° SSE 19:06:33 10° E visible
02 Dec - 21:00:33 10° WSW 21:09:28 50° S 21:24:36 10° ESE visible
02 Dec - 23:13:47 10° W 23:24:49 36° SSW 23:40:47 10° SE night (unlit)
03 Dec - 01:31:29 10° WSW 01:40:26 17° SW 01:50:45 10° S visible
03 Dec - 17:50:27 10° SW 17:55:49 33° SSE 18:04:22 10° E visible
03 Dec - 20:01:25 10° WSW 20:09:01 49° S 20:22:14 10° ESE visible
03 Dec - 22:13:54 10° W 22:23:46 41° SSW 22:39:17 10° SE visible
04 Dec - 00:29:12 10° WSW 00:39:18 22° SSW 00:52:04 10° S visible
04 Dec - 16:52:21 10° SSW 16:56:30 22° SSE 17:02:23 10° ESE visible
04 Dec - 19:02:30 10° WSW 19:08:56 45° S 19:19:59 10° ESE visible
04 Dec - 21:14:24 10° W 21:23:01 44° S 21:37:23 10° SE visible
04 Dec - 23:28:16 10° WSW 23:38:13 28° SSW 23:52:01 10° SSE night (unlit)
05 Dec - 15:55:11 10° S 15:57:25 13° SE 16:00:00 10° ESE daylight
05 Dec - 18:03:49 10° SW 18:09:12 38° SSE 18:17:59 10° ESE visible
05 Dec - 20:15:11 10° WSW 20:22:35 45° S 20:35:17 10° ESE visible
05 Dec - 22:28:06 10° W 22:37:18 32° SSW 22:51:07 10° SSE visible
06 Dec - 00:45:57 10° WSW 00:52:38 14° SW 01:00:23 10° S night (unlit)
06 Dec - 17:05:23 10° SW 17:09:46 28° SSE 17:16:18 10° ESE visible
06 Dec - 19:16:12 10° WSW 19:22:30 44° S 19:33:15 10° ESE visible
06 Dec - 21:28:25 10° WSW 21:36:37 36° SSW 21:49:42 10° SE visible
06 Dec - 23:43:37 10° WSW 23:51:40 19° SSW 00:02:01 10° S night (unlit)
07 Dec - 16:07:20 10° SSW 16:10:35 18° SSE 16:14:44 10° ESE daylight
07 Dec - 18:17:23 10° WSW 18:22:43 39° S 18:31:27 10° ESE visible
07 Dec - 20:29:05 10° WSW 20:36:13 38° S 20:48:02 10° SE visible
07 Dec - 22:42:48 10° WSW 22:50:51 23° SSW 23:02:07 10° SSE night (unlit)
08 Dec - 15:10:57 10° SSE 15:11:29 10° SSE 15:12:03 10° SE daylight
08 Dec - 17:18:45 10° SW 17:23:12 32° SSE 17:29:58 10° ESE visible
08 Dec - 19:30:01 10° WSW 19:36:07 39° S 19:46:18 10° ESE visible
08 Dec - 21:42:45 10° WSW 21:50:14 27° SSW 22:01:25 10° SSE visible
09 Dec - 00:02:14 10° SW 00:05:12 11° SSW 00:08:23 10° SSW night (unlit)
09 Dec - 16:20:18 10° SSW 16:23:55 24° SSE 16:28:46 10° ESE daylight
09 Dec - 18:31:06 10° WSW 18:36:19 38° S 18:44:45 10° ESE visible
09 Dec - 20:43:13 10° WSW 20:49:52 30° SSW 21:00:18 10° SE visible
09 Dec - 22:58:46 10° WSW 23:04:27 15° SSW 23:11:29 10° S night (unlit)
